This is the latest recevied weather packets stored in our database for station/object DL1GHN-6. If no packets are shown the sender has not sent any weather packets the latest 10 day(s).
| Time | Temp. | Humidity | Pressure | Rain* | Wind** | Luminosity | Snow |
|---|---|---|---|---|---|---|---|
| 1777784120 | 14.44° C | 75% | 1014.9 hPa | 0 mm | - | 14 W/m² | - |
| 1777783821 | 14.44° C | 74% | 1014.9 hPa | 0 mm | - | 14 W/m² | - |
| 1777783522 | 14.44° C | 74% | 1014.9 hPa | 0 mm | - | 16 W/m² | - |
| 1777783221 | 14.44° C | 74% | 1014.8 hPa | 0 mm | - | 18 W/m² | - |
| 1777782921 | 14.44° C | 74% | 1014.9 hPa | 0 mm | - | 16 W/m² | - |
| 1777782621 | 14.44° C | 74% | 1014.9 hPa | 0 mm | - | 11 W/m² | - |
| 1777782321 | 14.44° C | 74% | 1014.9 hPa | 0 mm | - | 7 W/m² | - |
| 1777782022 | 15° C | 74% | 1014.9 hPa | 0 mm | - | 5 W/m² | - |
| 1777781721 | 15° C | 73% | 1014.6 hPa | 0 mm | - | 0 W/m² | - |
| 1777781422 | 15° C | 73% | 1014.5 hPa | 0 mm | - | 0 W/m² | - |
| 1777781121 | 15° C | 73% | 1014.6 hPa | 0 mm | - | 0 W/m² | - |
| 1777780821 | 15° C | 71% | 1014.6 hPa | 0 mm | - | 0 W/m² | - |
| 1777780521 | 15° C | 72% | 1014.5 hPa | 0 mm | - | 0 W/m² | - |
| 1777780221 | 14.44° C | 73% | 1014.5 hPa | 0 mm | - | 0 W/m² | - |
| 1777779921 | 14.44° C | 76% | 1014.5 hPa | 0 mm | - | 0 W/m² | - |
| 1777779622 | 13.89° C | 77% | 1014.5 hPa | 0 mm | - | 0 W/m² | - |
| 1777779320 | 13.89° C | 76% | 1014.6 hPa | 0 mm | - | 0 W/m² | - |
| 1777779020 | 13.33° C | 77% | 1014.4 hPa | 0 mm | - | 0 W/m² | - |
| 1777778722 | 12.78° C | 80% | 1014.4 hPa | 0 mm | - | 0 W/m² | - |
| 1777778274 | 12.22° C | 81% | 1014.7 hPa | 0 mm | - | 0 W/m² | - |
| 1777777975 | 12.22° C | 81% | 1014.9 hPa | 0 mm | - | 0 W/m² | - |
| 1777777674 | 12.22° C | 81% | 1014.8 hPa | 0 mm | - | 0 W/m² | - |
| 1777777374 | 12.22° C | 81% | 1014.9 hPa | 0 mm | - | 0 W/m² | - |
| 1777777074 | 11.67° C | 81% | 1014.9 hPa | 0 mm | - | 0 W/m² | - |
| 1777776774 | 11.67° C | 81% | 1014.8 hPa | 0 mm | - | 0 W/m² | - |
* Rain latest hour (hover to see other rain measurements)
** Current wind speed in m/s (hover to see current wind gust speed)